Location: La Brionne
(46.1728°N, 1.7849°E)
Time: 18:28:35
(UTC+00:00)

Cosmos 1544 Rocket - Pass Details

Date: 24 October 2021
Orbit: 603 x 632 km, 82.5° (Epoch: 27 November)

Event Time Altitude Azimuth Distance (km) Brightness Sun altitude
Rises 04:46:09 0° 354° (N) 2,912 7.0 -17.3°
Reaches altitude 10° 04:48:26 10° 358° (N) 1,996 6.1 -16.9°
Maximum altitude 04:52:48 60° 79° (ENE) 709 4.1 -16.1°
Drops below altitude 10° 04:57:06 10° 159° (SSE) 1,963 6.4 -15.4°
Sets 04:59:19 0° 163° (SSE) 2,858 7.2 -15.0°
